Preview of NWS' New Version of Forecast
This preview is not operational and should not be used for support decisions.

Regional Weather Roundup (RWR)

Issued by National Weather Service (NWS)

                            
000
ASUS45 KBOU 221210
RWRCO 

WEATHER ROUNDUP FOR COLORADO
NATIONAL WEATHER SERVICE DENVER/BOULDER CO
600 AM MDT MON JUL 22 2019

NOTE: "FAIR" INDICATES FEW OR NO CLOUDS BELOW 12000 FEET WITH NO
SIGNIFICANT WEATHER AND/OR OBSTRUCTIONS TO VISIBILITY.

COZ001>005-013-030-031-221300-
...NORTHWEST COLORADO...
  
CITY           SKY/WX    TMP DP  RH WIND       PRES   REMARKS
CRAIG          FAIR      65  47  52 E13       30.30R                  
HAYDEN         FAIR      62  49  62 E12       30.35R                  
MEEKER         FAIR      51  40  65 NE5       30.30R                  
RANGELY        FAIR      68  40  36 SE12      30.19R                  
RABBIT EARS PA NOT AVBL                                               
STEAMBOAT SPGS FAIR      52  46  81 NW7       30.38R                  
WALDEN         NOT AVBL                                               
$$

COZ006>008-011-221300-
...WEST CENTRAL VALLEYS...
  
CITY           SKY/WX    TMP DP  RH WIND       PRES   REMARKS
GRAND JUNCTION FAIR      73  41  31 E10       30.16R                  
MONTROSE       FAIR      64  36  35 VRB5      30.28R                  
EAGLE          FAIR      54  42  64 CALM      30.41R                  
RIFLE          FAIR      60  42  51 S5        30.25R                  
DELTA          FAIR      66  37  35 SW3       30.23R                  
NUCLA          FAIR      63  30  29 E7        30.29R                  
$$

COZ017>023-064>068-221300-
...SOUTHWEST COLORADO...
  
CITY           SKY/WX    TMP DP  RH WIND       PRES   REMARKS
DURANGO        FAIR      58  42  55 NE8       30.37R                  
CORTEZ         FAIR      74  46  36 VRB6      30.27R                  
PAGOSA SPRINGS FAIR      58  44  59 NW3       30.46S                  
TELLURIDE      FAIR      63  34  34 CALM      30.55R                  
WOLF CREEK PAS FAIR      45  39  81 E5        30.82R                  
$$

COZ009-010-012-014-032>034-037-058>063-221300-
...CENTRAL COLORADO...
  
CITY           SKY/WX    TMP DP  RH WIND       PRES   REMARKS
ASPEN          FAIR      56  42  59 CALM      30.43R                  
BUENA VISTA    FAIR      47  45  90 CALM      30.54R                  
COPPER MTN     FAIR      54  41  62 S17       30.78R                  
BERTHOUD PASS  FAIR      45  32  61 SE8       30.82R                  
COTTONWOOD PAS NOT AVBL                                               
GUNNISON       FAIR      50  43  77 N9        30.49R                  
GRANBY         NOT AVBL                                               
KREMMLING      FAIR      48  43  81 CALM      30.47R                  
LEADVILLE      FAIR      44  43  96 E5        30.64S                  
SALIDA         FAIR      53  48  84 W8        30.60R                  
SUNLIGHT       FAIR      50  37  62 E9        30.68R                  
WILKERSON PASS FAIR      48  37  66 CALM      30.76S                  
$$

COZ069>075-221300-
...SAN LUIS VALLEY/SANGRE DE CRISTO MOUNTAINS...
  
CITY           SKY/WX    TMP DP  RH WIND       PRES   REMARKS
ALAMOSA        FAIR      54  47  77 CALM      30.48R                  
DEL NORTE      FAIR      55  44  64 W14       30.52R                  
LA VETA PASS   NOT AVBL                                               
SAGUACHE       FAIR      50  41  71 CALM      30.52R                  
$$

COZ035-036-038>040-221300-
...NORTHERN COLORADO FRONT RANGE...
  
CITY           SKY/WX    TMP DP  RH WIND       PRES   REMARKS
DENVER INTL AP FAIR      61  57  87 S5        30.37R                  
AURORA         PTCLDY    58  58  98 S6        30.39R                  
FRONT RANGE AP FAIR      61  56  83 SW6       30.39R                  
ERIE MUNI ARPT FAIR      62  60  93 CALM      30.41R                  
BOULDER MUN AP CLOUDY    63  61  94 NE5       30.37R                  
CENTENNIAL     FAIR      59  55  87 CALM      30.39S                  
BROOMFIELD     FAIR      63  61  94 N9        30.38S                  
FORT COLLINS   CLOUDY    63  60  90 E7        30.37R                  
LONGMONT       FAIR      64  61  88 N8        30.38R FOG              
$$

COZ041-046-047-076>085-087-088-221300-
...PIKES PEAK/PALMER DIVIDE AND SOUTHERN FOOTHILLS...
  
CITY           SKY/WX    TMP DP  RH WIND       PRES   REMARKS
COLO. SPRINGS  FAIR      57  50  77 N8        30.45R                  
A. F. ACADEMY  FAIR      52  52  99 N6        30.44R                  
SCHRIEVER AFB  NOT AVBL                                               
CHEYENNE MTN   NOT AVBL                                               
ELLICOTT         N/A    N/A N/A N/A E9        30.43R                  
FALCON         FAIR      55  49  81 CALM      30.48R                  
FORT CARSON    FAIR      56  51  83 NW3       30.41R                  
LIMON          CLOUDY    62  61  96 SE12      30.40R                  
MONUMENT HILL  FAIR      50  46  87 SW6       30.49R                  
CANON CITY     FAIR      59  59 100 N5        30.40R                  
WALSENBURG     NOT AVBL                                               
TRINIDAD       FAIR      60  58  92 SE6       30.44R                  
$$

COZ042>045-048>051-090-091-221300-
...NORTHEAST COLORADO...
  
CITY           SKY/WX    TMP DP  RH WIND       PRES   REMARKS
GREELEY ARPT   CLOUDY    63  61  93 E9        30.36R                  
AKRON          CLOUDY    63  61  93 SE7       30.38R                  
BURLINGTON     CLOUDY    64  62  93 CALM      30.37R                  
WRAY           CLOUDY    61  61 100 E7        30.37R                  
YUMA           CLOUDY    61  45  55 E8        30.37R                  
STERLING       CLOUDY    63  63 100 E7        30.35R                  
HOLYOKE        CLOUDY    63  57  82 E7        30.37R                  
FORT MORGAN    NOT AVBL                                               
$$

COZ086-089-092>099-221300-
...SOUTHEAST COLORADO...
  
CITY           SKY/WX    TMP DP  RH WIND       PRES   REMARKS
PUEBLO         FAIR      61  59  93 E3        30.37R                  
LA JUNTA       CLOUDY    65  62  90 S5        30.36R                  
LAMAR          MOCLDY    66  62  87 E6        30.33R                  
SPRINGFIELD      N/A     61  60  97 E7        30.37R                  
$$